Alpine, TX

2:09 AM CST on January 20, 2018 (GMT -0600)
Alpine

Weather History for KE38 - February, 2014

Change the Weather History Date:

Wednesday, February 19, 2014

  Actual Average (KMRF) Record (KMRF)
Temperature  
Mean Temperature 64 °F -  
Max Temperature 82 °F 59 °F 84 °F (2016)
Min Temperature 46 °F 29 °F 12 °F (1998)
Degree Days  
Heating Degree Days 1    
Growing Degree Days 14 (Base 50)    
Moisture  
Dew Point 17 °F    
Average Humidity 18    
Maximum Humidity 32    
Minimum Humidity 8    
Precipitation  
Precipitation 0.00 in - - ()
Sea Level Pressure  
Sea Level Pressure 29.98 in    
Wind  
Wind Speed 9 mph (WSW)    
Max Wind Speed 22 mph    
Max Gust Speed 31 mph    
Visibility 10 miles    
Events      
Averages and records for this station are not official NWS values.
T = Trace of Precipitation, MM = Missing Value Source: NWS Daily Summary

Daily Weather History Graph

Daily Weather History Graph

Search for Another Location

Airport or City:

Trip Planner

Search our weather history database for the weather conditions in past years. The results will help you decide how hot, cold, wet, or windy it might be!

Date:

Astronomy

Feb. 19, 2014 Rise Set
Actual Time 7:31 AM CST 6:46 PM CST
Civil Twilight 7:06 AM CST 7:10 PM CST
Nautical Twilight 6:38 AM CST 7:38 PM CST
Astronomical Twilight 6:10 AM CST 8:06 PM CST
Moon 11:18 PM CST (2/19) 10:00 AM CST (2/19)
Length of Visible Light 12h 03m
Length of Day
11h 15m
Waning Gibbous, 79% of the Moon is Illuminated
Feb 19
Waning Gibbous
Feb 22
Last Quarter
Mar 1
New
Mar 8
First Quarter
Mar 16
Full

Hourly Weather History & Observations

Time (CST) Temp. Dew Point Humidity Pressure Visibility Wind Dir Wind Speed Gust Speed Precip Events Conditions
12:15 AM 49.1 °F 18.3 °F 30% 30.10 in 10.0 mi South 6.9 mph - N/A   Clear
12:35 AM 50.2 °F 18.3 °F 28% 30.10 in 10.0 mi SSW 6.9 mph - N/A   Clear
12:55 AM 48.6 °F 18.1 °F 30% 30.09 in 10.0 mi SSW 8.1 mph - N/A   Clear
1:15 AM 48.6 °F 18.5 °F 30% 30.09 in 10.0 mi SW 8.1 mph - N/A   Clear
1:35 AM 50.2 °F 18.5 °F 29% 30.09 in 10.0 mi SW 9.2 mph - N/A   Clear
1:55 AM 53.1 °F 18.9 °F 26% 30.08 in 10.0 mi SW 9.2 mph - N/A   Clear
2:15 AM 49.5 °F 18.5 °F 29% 30.08 in 10.0 mi South 4.6 mph - N/A   Clear
2:35 AM 48.6 °F 18.5 °F 30% 30.07 in 10.0 mi SSW 9.2 mph - N/A   Clear
3:15 AM 47.7 °F 18.7 °F 32% 30.06 in 10.0 mi WSW 9.2 mph - N/A   Clear
3:35 AM 46.6 °F 18.3 °F 32% 30.06 in 10.0 mi Calm Calm - N/A   Clear
3:55 AM 51.1 °F 19.2 °F 29% 30.04 in 10.0 mi SSW 4.6 mph - N/A   Clear
4:15 AM 48.6 °F 18.5 °F 30% 30.04 in 10.0 mi SW 5.8 mph - N/A   Clear
4:35 AM 47.7 °F 18.5 °F 31% 30.03 in 10.0 mi WSW 9.2 mph - N/A   Clear
4:55 AM 49.1 °F 19.0 °F 30% 30.03 in 10.0 mi WSW 8.1 mph - N/A   Clear
5:15 AM 46.8 °F 18.5 °F 32% 30.03 in 10.0 mi SW 8.1 mph - N/A   Clear
5:35 AM 49.3 °F 18.5 °F 30% 30.03 in 10.0 mi Calm Calm - N/A   Clear
5:55 AM 48.6 °F 18.3 °F 30% 30.03 in 10.0 mi SW 9.2 mph - N/A   Clear
6:15 AM 49.3 °F 18.3 °F 29% 30.03 in 10.0 mi SW 12.7 mph - N/A   Clear
6:35 AM 52.7 °F 18.5 °F 26% 30.03 in 10.0 mi SW 11.5 mph - N/A   Clear
6:55 AM 50.9 °F 18.0 °F 27% 30.03 in 10.0 mi SW 10.4 mph - N/A   Clear
7:35 AM 52.5 °F 18.1 °F 26% 30.04 in 10.0 mi WSW 8.1 mph - N/A   Clear
7:55 AM 52.7 °F 18.3 °F 26% 30.04 in 10.0 mi SW 6.9 mph - N/A   Clear
8:15 AM 57.2 °F 19.6 °F 23% 30.04 in 10.0 mi SW 8.1 mph - N/A   Clear
8:35 AM 61.9 °F 20.3 °F 20% 30.04 in 10.0 mi SW 6.9 mph - N/A   Clear
8:55 AM 65.1 °F 20.3 °F 18% 30.04 in 10.0 mi SW 6.9 mph - N/A   Clear
9:15 AM 67.8 °F 20.8 °F 17% 30.04 in 10.0 mi West 8.1 mph - N/A   Clear
9:35 AM 70.5 °F 20.8 °F 15% 30.04 in 10.0 mi West 8.1 mph - N/A   Clear
9:55 AM 72.7 °F 20.3 °F 14% 30.04 in 10.0 mi WSW 4.6 mph - N/A   Clear
10:15 AM 74.5 °F 19.6 °F 13% 30.03 in 10.0 mi SW 9.2 mph - N/A   Clear
10:35 AM 76.3 °F 19.9 °F 12% 30.03 in 10.0 mi West 6.9 mph - N/A   Clear
11:15 AM 76.6 °F 18.5 °F 11% 30.02 in 10.0 mi SW 11.5 mph - N/A   Clear
11:35 AM 77.7 °F 18.3 °F 11% 30.01 in 10.0 mi WSW 8.1 mph - N/A   Clear
11:55 AM 79.3 °F 16.2 °F 9% 30.00 in 10.0 mi SW 10.4 mph 17.3 mph N/A   Clear
12:15 PM 79.2 °F 16.2 °F 9% 30.00 in 10.0 mi West 16.1 mph - N/A   Clear
12:35 PM 79.5 °F 16.2 °F 9% 29.98 in 10.0 mi WSW 15.0 mph 20.7 mph N/A   Clear
12:55 PM 80.1 °F 17.8 °F 10% 29.97 in 10.0 mi West 16.1 mph - N/A   Clear
1:15 PM 81.0 °F 18.1 °F 10% 29.95 in 10.0 mi SW 12.7 mph 18.4 mph N/A   Clear
1:35 PM 81.1 °F 18.1 °F 10% 29.93 in 10.0 mi WSW 12.7 mph 18.4 mph N/A   Clear
1:55 PM 81.9 °F 17.8 °F 9% 29.92 in 10.0 mi SW 17.3 mph 26.5 mph N/A   Clear
2:20 PM 82.2 °F 17.8 °F 9% 29.90 in 10.0 mi SW 11.5 mph 27.6 mph N/A   Clear
2:35 PM 81.9 °F 17.8 °F 9% 29.89 in 10.0 mi West 17.3 mph 31.1 mph N/A   Clear
2:55 PM 80.8 °F 16.0 °F 9% 29.89 in 10.0 mi West 17.3 mph 27.6 mph N/A   Clear
3:15 PM 80.6 °F 15.8 °F 9% 29.89 in 10.0 mi West 13.8 mph 26.5 mph N/A   Clear
3:35 PM 80.8 °F 14.9 °F 8% 29.89 in 10.0 mi West 18.4 mph 24.2 mph N/A   Clear
3:55 PM 81.1 °F 14.2 °F 8% 29.89 in 10.0 mi West 18.4 mph 31.1 mph N/A   Clear
4:15 PM 80.4 °F 14.2 °F 8% 29.89 in 10.0 mi West 15.0 mph 25.3 mph N/A   Clear
4:35 PM 78.1 °F 13.6 °F 9% 29.89 in 10.0 mi West 21.9 mph 27.6 mph N/A   Clear
4:55 PM 78.6 °F 14.5 °F 9% 29.88 in 10.0 mi WSW 13.8 mph 21.9 mph N/A   Clear
5:15 PM 78.1 °F 15.1 °F 9% 29.88 in 10.0 mi WSW 9.2 mph 16.1 mph N/A   Clear
5:35 PM 78.8 °F 14.9 °F 9% 29.88 in 10.0 mi West 13.8 mph - N/A   Clear
5:55 PM 77.4 °F 14.9 °F 9% 29.88 in 10.0 mi West 16.1 mph 25.3 mph N/A   Clear
6:15 PM 76.1 °F 16.5 °F 11% 29.88 in 10.0 mi West 18.4 mph 23.0 mph N/A   Clear
6:35 PM 73.4 °F 16.7 °F 12% 29.88 in 10.0 mi West 11.5 mph 16.1 mph N/A   Clear
7:00 PM 70.9 °F 17.1 °F 13% 29.89 in 10.0 mi West 9.2 mph - N/A   Clear
7:15 PM 67.5 °F 16.5 °F 14% 29.89 in 10.0 mi West 8.1 mph - N/A   Clear
7:35 PM 71.4 °F 14.5 °F 11% 29.89 in 10.0 mi West 6.9 mph 10.4 mph N/A   Clear
8:15 PM 70.3 °F 13.1 °F 11% 29.91 in 10.0 mi West 10.4 mph 18.4 mph N/A   Clear
8:35 PM 70.0 °F 13.6 °F 11% 29.91 in 10.0 mi WNW 13.8 mph 19.6 mph N/A   Clear
9:35 PM 64.9 °F 12.4 °F 13% 29.91 in 10.0 mi SW 8.1 mph - N/A   Clear
9:55 PM 63.5 °F 12.2 °F 14% 29.91 in 10.0 mi SW 9.2 mph - N/A   Clear
10:20 PM 61.2 °F 12.9 °F 15% 29.91 in 10.0 mi SW 9.2 mph - N/A   Clear
10:35 PM 57.9 °F 13.3 °F 17% 29.91 in 10.0 mi SW 10.4 mph - N/A   Clear
10:55 PM 55.8 °F 13.1 °F 19% 29.90 in 10.0 mi SSW 11.5 mph - N/A   Clear
11:40 PM 56.7 °F 13.1 °F 18% 29.89 in 10.0 mi SW 11.5 mph - N/A   Clear
11:55 PM 53.6 °F 13.1 °F 20% 29.89 in 10.0 mi WSW 10.4 mph - N/A   Clear